,,Stat6,,Stat2,,Stat8,,Stat9,,Stat10,,Wind1,,Wind1,
time,status,PA1M_AVG,status,PR1M_SUM,status,RH1M_AVG,status,SR1M_AVG,status,TA1M_AVG,status,W1dAve1m,status,W1sAve1m,
2005-12-09, 00:00:00,VALID,917.554,VALID,0,VALID,100,VALID,-0.0339617,VALID,19.0613,VALID,139,VALID,0.726753,
2005-12-09, 00:01:00,VALID,917.534,VALID,0,VALID,100,VALID,-0.0339617,VALID,19.0511,VALID,123,VALID,0.804348,
2005-12-09, 00:02:00,VALID,917.516,VALID,0,VALID,100,VALID,0,VALID,19.0253,VALID,133,VALID,0.31064,
2005-12-09, 00:03:00,VALID,917.494,VALID,0,VALID,100,VALID,0,VALID,19.0317,VALID,119,VALID,0.349276,
2005-12-09, 00:04:00,VALID,917.471,VALID,0,VALID,100,VALID,0.0169808,VALID,19.0243,VALID,113,VALID,0.393293,
2005-12-09, 00:05:00,VALID,917.45,VALID,0.2,VALID,100,VALID,0,VALID,19.031,VALID,98,VALID,0.276972,
2005-12-09, 00:06:00,VALID,917.442,VALID,0,VALID,100,VALID,0.0509425,VALID,19.0178,VALID,85,VALID,0.376172,
2005-12-09, 00:07:00,VALID,917.427,VALID,0,VALID,100,VALID,0,VALID,19.0082,VALID,73,VALID,0.0676491,
2005-12-09, 00:08:00,VALID,917.412,VALID,0,VALID,100,VALID,0,VALID,19.0146,VALID,84,VALID,0.530599,
2005-12-09, 00:09:00,VALID,917.405,VALID,0,VALID,100,VALID,0.0339617,VALID,18.9851,VALID,71,VALID,0.654018,
2005-12-09, 00:10:00,VALID,917.396,VALID,0,VALID,100,VALID,0,VALID,18.9918,VALID,85,VALID,0.753634,
2005-12-09, 00:11:00,VALID,917.375,VALID,0,VALID,100,VALID,0,VALID,18.995,VALID,40,VALID,0.755335,
2005-12-09, 00:12:00,VALID,917.368,VALID,0,VALID,100,VALID,0.0169808,VALID,19.0149,VALID,43,VALID,0.704985,
2005-12-09, 00:13:00,VALID,917.38,VALID,0,VALID,100,VALID,0,VALID,19.0116,VALID,43,VALID,0.673921,
2005-12-09, 00:14:00,VALID,917.372,VALID,0,VALID,100,VALID,0,VALID,19.0052,VALID,46,VALID,0.617914,
2005-12-09, 00:15:00,VALID,917.368,VALID,0,VALID,100,VALID,0.0169808,VALID,18.9922,VALID,52,VALID,0.490451,
2005-12-09, 00:16:00,VALID,917.372,VALID,0,VALID,100,VALID,0,VALID,18.9763,VALID,75,VALID,0.39383,
2005-12-09, 00:17:00,VALID,917.349,VALID,0,VALID,100,VALID,0,VALID,18.9669,VALID,75,VALID,0.285252,
2005-12-09, 00:18:00,VALID,917.341,VALID,0,VALID,100,VALID,0.0169808,VALID,18.9567,VALID,75,VALID,0.255208,
2005-12-09, 00:19:00,VALID,917.321,VALID,0,VALID,100,VALID,0,VALID,18.9539,VALID,75,VALID,0.04375,
2005-12-09, 00:20:00,VALID,917.303,VALID,0,VALID,100,VALID,0,VALID,18.9567,VALID,75,VALID,0,
2005-12-09, 00:21:00,VALID,917.3,VALID,0,VALID,100,VALID,0,VALID,18.9736,VALID,75,VALID,0.0012429,
2005-12-09, 00:22:00,VALID,917.29,VALID,0,VALID,100,VALID,0,VALID,18.9731,VALID,75,VALID,0,
2005-12-09, 00:23:00,VALID,917.291,VALID,0,VALID,100,VALID,0.0169808,VALID,18.9823,VALID,75,VALID,0,
2005-12-09, 00:24:00,VALID,917.28,VALID,0,VALID,100,VALID,0,VALID,18.9855,VALID,75,VALID,0,
2005-12-09, 00:25:00,VALID,917.286,VALID,0,VALID,100,VALID,0,VALID,18.989,VALID,75,VALID,0.020419,
2005-12-09, 00:26:00,VALID,917.271,VALID,0,VALID,100,VALID,0.0169808,VALID,19.0019,VALID,75,VALID,0,
2005-12-09, 00:27:00,VALID,917.278,VALID,0,VALID,100,VALID,0,VALID,19.0049,VALID,75,VALID,0.188227,
2005-12-09, 00:28:00,VALID,917.274,VALID,0,VALID,100,VALID,0.0169808,VALID,18.9985,VALID,75,VALID,0.363477,
2005-12-09, 00:29:00,VALID,917.261,VALID,0,VALID,100,VALID,0.0339617,VALID,18.9788,VALID,75,VALID,0.445685,
2005-12-09, 00:30:00,VALID,917.238,VALID,0,VALID,100,VALID,0.0509425,VALID,18.9821,VALID,75,VALID,0.534091,
2005-12-09, 00:31:00,VALID,917.235,VALID,0,VALID,100,VALID,0.0339617,VALID,18.9922,VALID,72,VALID,0.448847,
2005-12-09, 00:32:00,VALID,917.217,VALID,0,VALID,100,VALID,0.0339617,VALID,18.9791,VALID,72,VALID,0.086128,
2005-12-09, 00:33:00,VALID,917.206,VALID,0,VALID,100,VALID,-0.0169808,VALID,18.9403,VALID,72,VALID,0.246003,
2005-12-09, 00:34:00,VALID,917.193,VALID,0,VALID,100,VALID,-0.101885,VALID,18.9062,VALID,72,VALID,0.259411,
2005-12-09, 00:35:00,VALID,917.182,VALID,0,VALID,100,VALID,-0.0849042,VALID,18.9067,VALID,72,VALID,0.33505,
2005-12-09, 00:36:00,VALID,917.162,VALID,0,VALID,100,VALID,-0.101885,VALID,18.9034,VALID,72,VALID,0.483073,
2005-12-09, 00:37:00,VALID,917.131,VALID,0,VALID,100,VALID,-0.0849042,VALID,18.8873,VALID,72,VALID,0.558503,
2005-12-09, 00:38:00,VALID,917.118,VALID,0,VALID,100,VALID,-0.101885,VALID,18.8808,VALID,72,VALID,0.633194,
2005-12-09, 00:39:00,VALID,917.1,VALID,0,VALID,100,VALID,-0.118866,VALID,18.8711,VALID,69,VALID,0.728277,
2005-12-09, 00:40:00,VALID,917.084,VALID,0,VALID,100,VALID,-0.101885,VALID,18.8609,VALID,62,VALID,0.699886,
2005-12-09, 00:41:00,VALID,917.075,VALID,0,VALID,100,VALID,-0.0849042,VALID,18.8577,VALID,59,VALID,0.576079,
2005-12-09, 00:42:00,VALID,917.066,VALID,0,VALID,100,VALID,-0.0169808,VALID,18.8416,VALID,59,VALID,0.684482,
2005-12-09, 00:43:00,VALID,917.05,VALID,0,VALID,100,VALID,-0.0849042,VALID,18.8547,VALID,59,VALID,0.675037,
2005-12-09, 00:44:00,VALID,917.063,VALID,0,VALID,100,VALID,-0.0679233,VALID,18.8418,VALID,51,VALID,0.818537,
2005-12-09, 00:45:00,VALID,917.044,VALID,0,VALID,100,VALID,-0.0849042,VALID,18.8252,VALID,48,VALID,0.663477,
2005-12-09, 00:46:00,VALID,917.04,VALID,0,VALID,100,VALID,-0.101885,VALID,18.842,VALID,48,VALID,0.788491,
2005-12-09, 00:47:00,VALID,917.028,VALID,0,VALID,100,VALID,-0.101885,VALID,18.8363,VALID,48,VALID,0.765997,
2005-12-09, 00:48:00,VALID,917.01,VALID,0,VALID,100,VALID,-0.0509425,VALID,18.8182,VALID,48,VALID,0.707126,
2005-12-09, 00:49:00,VALID,916.999,VALID,0,VALID,100,VALID,0.0339617,VALID,18.8145,VALID,48,VALID,0.694727,
2005-12-09, 00:50:00,VALID,916.978,VALID,0,VALID,100,VALID,0.0339617,VALID,18.8048,VALID,49,VALID,0.610465,
2005-12-09, 00:51:00,VALID,916.971,VALID,0,VALID,100,VALID,0.0339617,VALID,18.7917,VALID,55,VALID,0.513579,
2005-12-09, 00:52:00,VALID,916.955,VALID,0.2,VALID,100,VALID,0.0679233,VALID,18.7757,VALID,58,VALID,0.460742,
2005-12-09, 00:53:00,VALID,916.943,VALID,0,VALID,100,VALID,0,VALID,18.773,VALID,74,VALID,0.431176,
2005-12-09, 00:54:00,VALID,916.936,VALID,0,VALID,100,VALID,0.0339617,VALID,18.7631,VALID,77,VALID,0.335574,
2005-12-09, 00:55:00,VALID,916.921,VALID,0,VALID,100,VALID,0.0169808,VALID,18.7557,VALID,79,VALID,0.511533,
2005-12-09, 00:56:00,VALID,916.906,VALID,0,VALID,100,VALID,0.0169808,VALID,18.7464,VALID,90,VALID,0.454883,
2005-12-09, 00:57:00,VALID,916.899,VALID,0,VALID,100,VALID,0.0169808,VALID,18.7598,VALID,92,VALID,0.0664971,
2005-12-09, 00:58:00,VALID,916.89,VALID,0,VALID,100,VALID,0,VALID,18.7598,VALID,99,VALID,0.309261,
2005-12-09, 00:59:00,VALID,916.883,VALID,0,VALID,100,VALID,0.0169808,VALID,18.7596,VALID,111,VALID,0.294212,
2005-12-09, 01:00:00,VALID,916.865,VALID,0,VALID,100,VALID,0,VALID,18.7757,VALID,112,VALID,0.171494,
2005-12-09, 01:01:00,VALID,916.857,VALID,0,VALID,100,VALID,0,VALID,18.8021,VALID,112,VALID,0.065407,
2005-12-09, 01:02:00,VALID,916.834,VALID,0,VALID,100,VALID,0,VALID,18.8212,VALID,112,VALID,0.110742,
2005-12-09, 01:03:00,VALID,916.83,VALID,0,VALID,100,VALID,0.0339617,VALID,18.8438,VALID,112,VALID,0.353924,
2005-12-09, 01:04:00,VALID,916.813,VALID,0,VALID,100,VALID,0.0169808,VALID,18.8669,VALID,112,VALID,0.22904,
2005-12-09, 01:05:00,VALID,916.795,VALID,0,VALID,100,VALID,0.0169808,VALID,18.8766,VALID,112,VALID,0.0701349,
2005-12-09, 01:06:00,VALID,916.781,VALID,0,VALID,100,VALID,0.0509425,VALID,18.8734,VALID,112,VALID,0,
2005-12-09, 01:07:00,VALID,916.753,VALID,0,VALID,100,VALID,0,VALID,18.8727,VALID,112,VALID,0,
2005-12-09, 01:08:00,VALID,916.735,VALID,0,VALID,100,VALID,0.0509425,VALID,18.8736,VALID,112,VALID,0,
2005-12-09, 01:09:00,VALID,916.715,VALID,0,VALID,100,VALID,0.0339617,VALID,18.857,VALID,112,VALID,0.0582217,
2005-12-09, 01:10:00,VALID,916.702,VALID,0,VALID,100,VALID,0,VALID,18.8669,VALID,112,VALID,0.267223,
2005-12-09, 01:11:00,VALID,916.682,VALID,0.2,VALID,100,VALID,0.0169808,VALID,18.8468,VALID,112,VALID,0.386186,
2005-12-09, 01:12:00,VALID,916.67,VALID,0,VALID,100,VALID,0,VALID,18.8505,VALID,112,VALID,0.339472,
2005-12-09, 01:13:00,VALID,916.669,VALID,0,VALID,100,VALID,0.0169808,VALID,18.8406,VALID,112,VALID,0.394055,
2005-12-09, 01:14:00,VALID,916.651,VALID,0,VALID,100,VALID,0.0509425,VALID,18.8272,VALID,112,VALID,0.317224,
2005-12-09, 01:15:00,VALID,916.639,VALID,0,VALID,100,VALID,0.0169808,VALID,18.8374,VALID,118,VALID,0.520712,
2005-12-09, 01:16:00,VALID,916.632,VALID,0,VALID,100,VALID,0.0339617,VALID,18.8244,VALID,118,VALID,0.320685,
2005-12-09, 01:17:00,VALID,916.605,VALID,0,VALID,100,VALID,0.0169808,VALID,18.8118,VALID,98,VALID,0.622638,
2005-12-09, 01:18:00,VALID,916.594,VALID,0,VALID,100,VALID,0.0339617,VALID,18.8025,VALID,89,VALID,0.623365,
2005-12-09, 01:19:00,VALID,916.572,VALID,0,VALID,100,VALID,-0.101885,VALID,18.7871,VALID,101,VALID,0.669158,
2005-12-09, 01:20:00,VALID,916.557,VALID,0,VALID,100,VALID,-0.0849042,VALID,18.7769,VALID,103,VALID,0.426962,
2005-12-09, 01:21:00,VALID,916.537,VALID,0,VALID,100,VALID,-0.0679233,VALID,18.7869,VALID,103,VALID,0.135671,
2005-12-09, 01:22:00,VALID,916.517,VALID,0,VALID,100,VALID,-0.0679233,VALID,18.7901,VALID,103,VALID,0.146439,
2005-12-09, 01:23:00,VALID,916.51,VALID,0,VALID,100,VALID,-0.0849042,VALID,18.8037,VALID,103,VALID,0.356771,
2005-12-09, 01:24:00,VALID,916.503,VALID,0,VALID,100,VALID,-0.0679233,VALID,18.7998,VALID,103,VALID,0.205433,
2005-12-09, 01:25:00,VALID,916.49,VALID,0,VALID,100,VALID,-0.0679233,VALID,18.8,VALID,103,VALID,0.130632,
2005-12-09, 01:26:00,VALID,916.477,VALID,0,VALID,100,VALID,-0.101885,VALID,18.8102,VALID,104,VALID,0.568182,
2005-12-09, 01:27:00,VALID,916.464,VALID,0.2,VALID,100,VALID,-0.101885,VALID,18.8104,VALID,114,VALID,0.221112,
2005-12-09, 01:28:00,VALID,916.452,VALID,0,VALID,100,VALID,-0.0679233,VALID,18.7936,VALID,110,VALID,0.357701,
2005-12-09, 01:29:00,VALID,916.451,VALID,0,VALID,100,VALID,-0.0679233,VALID,18.8164,VALID,109,VALID,0.25,
2005-12-09, 01:30:00,VALID,916.425,VALID,0,VALID,100,VALID,-0.101885,VALID,18.8035,VALID,111,VALID,0.370833,
2005-12-09, 01:31:00,VALID,916.407,VALID,0,VALID,100,VALID,-0.0679233,VALID,18.7975,VALID,111,VALID,0.136186,
2005-12-09, 01:32:00,VALID,916.376,VALID,0,VALID,100,VALID,-0.101885,VALID,18.8003,VALID,92,VALID,0.45585,
2005-12-09, 01:33:00,VALID,916.352,VALID,0,VALID,100,VALID,-0.0509425,VALID,18.7836,VALID,99,VALID,0.710405,
2005-12-09, 01:34:00,VALID,916.338,VALID,0,VALID,100,VALID,0.0339617,VALID,18.7663,VALID,100,VALID,0.659339,
2005-12-09, 01:35:00,VALID,916.328,VALID,0,VALID,100,VALID,0.0169808,VALID,18.7497,VALID,87,VALID,0.485283,
2005-12-09, 01:36:00,VALID,916.32,VALID,0,VALID,100,VALID,0.0169808,VALID,18.7434,VALID,86,VALID,0.519245,
2005-12-09, 01:37:00,VALID,916.309,VALID,0,VALID,100,VALID,0,VALID,18.7506,VALID,95,VALID,0.551491,
2005-12-09, 01:38:00,VALID,916.299,VALID,0,VALID,100,VALID,0.0169808,VALID,18.7511,VALID,88,VALID,0.0745908,
2005-12-09, 01:39:00,VALID,916.29,VALID,0,VALID,100,VALID,0.0849042,VALID,18.73,VALID,86,VALID,0.308066,
2005-12-09, 01:40:00,VALID,916.286,VALID,0,VALID,100,VALID,0.0509425,VALID,18.7601,VALID,85,VALID,0.25218,
2005-12-09, 01:41:00,VALID,916.301,VALID,0,VALID,100,VALID,0,VALID,18.7668,VALID,85,VALID,0.143102,
2005-12-09, 01:42:00,VALID,916.29,VALID,0,VALID,100,VALID,0.0339617,VALID,18.7437,VALID,85,VALID,0.252486,
2005-12-09, 01:43:00,VALID,916.29,VALID,0,VALID,100,VALID,0.0169808,VALID,18.7404,VALID,88,VALID,0.608467,
2005-12-09, 01:44:00,VALID,916.281,VALID,0,VALID,100,VALID,0,VALID,18.7213,VALID,101,VALID,0.411644,
2005-12-09, 01:45:00,VALID,916.281,VALID,0,VALID,100,VALID,0,VALID,18.7148,VALID,102,VALID,0.583519,
2005-12-09, 01:46:00,VALID,916.274,VALID,0,VALID,100,VALID,0.0169808,VALID,18.7088,VALID,102,VALID,0.630682,
2005-12-09, 01:47:00,VALID,916.262,VALID,0,VALID,100,VALID,0.0169808,VALID,18.7024,VALID,102,VALID,0.78125,
2005-12-09, 01:48:00,VALID,916.253,VALID,0,VALID,100,VALID,0,VALID,18.6922,VALID,102,VALID,0.558321,
2005-12-09, 01:49:00,VALID,916.251,VALID,0,VALID,100,VALID,0.0169808,VALID,18.6788,VALID,100,VALID,0.787388,
2005-12-09, 01:50:00,VALID,916.237,VALID,0,VALID,100,VALID,0.0169808,VALID,18.6892,VALID,100,VALID,0.696456,
2005-12-09, 01:51:00,VALID,916.234,VALID,0,VALID,100,VALID,0.0169808,VALID,18.6857,VALID,95,VALID,0.721839,
2005-12-09, 01:52:00,VALID,916.24,VALID,0,VALID,100,VALID,0.0339617,VALID,18.6825,VALID,87,VALID,0.302871,
2005-12-09, 01:53:00,VALID,916.223,VALID,0,VALID,100,VALID,0.0339617,VALID,18.6862,VALID,87,VALID,0.274325,
2005-12-09, 01:54:00,VALID,916.206,VALID,0,VALID,100,VALID,0.0169808,VALID,18.6728,VALID,107,VALID,0.45206,
2005-12-09, 01:55:00,VALID,916.186,VALID,0,VALID,100,VALID,0.0339617,VALID,18.6761,VALID,124,VALID,0.198742,
2005-12-09, 01:56:00,VALID,916.161,VALID,0,VALID,100,VALID,0.0169808,VALID,18.6664,VALID,116,VALID,0.367369,
2005-12-09, 01:57:00,VALID,916.134,VALID,0,VALID,100,VALID,0,VALID,18.6698,VALID,130,VALID,0.773996,
2005-12-09, 01:58:00,VALID,916.115,VALID,0,VALID,100,VALID,0.0509425,VALID,18.6601,VALID,123,VALID,0.248326,
2005-12-09, 01:59:00,VALID,916.094,VALID,0,VALID,100,VALID,0.0169808,VALID,18.6534,VALID,116,VALID,0.694404,
2005-12-09, 02:00:00,VALID,916.061,VALID,0,VALID,100,VALID,0.0339617,VALID,18.6569,VALID,100,VALID,0.677148,
2005-12-09, 02:01:00,VALID,916.045,VALID,0,VALID,100,VALID,0.0509425,VALID,18.65,VALID,103,VALID,0.560865,
2005-12-09, 02:02:00,VALID,916.016,VALID,0,VALID,100,VALID,0.0339617,VALID,18.6534,VALID,88,VALID,0.839472,
2005-12-09, 02:03:00,VALID,916.015,VALID,0,VALID,100,VALID,0.0339617,VALID,18.6629,VALID,95,VALID,0.768359,
2005-12-09, 02:04:00,VALID,916.008,VALID,0,VALID,100,VALID,0,VALID,18.6636,VALID,84,VALID,0.856213,
2005-12-09, 02:05:00,VALID,916.006,VALID,0,VALID,100,VALID,0.0169808,VALID,18.65,VALID,89,VALID,0.767485,
2005-12-09, 02:06:00,VALID,916.001,VALID,0,VALID,100,VALID,0.0169808,VALID,18.6599,VALID,90,VALID,0.743459,
2005-12-09, 02:07:00,VALID,916.003,VALID,0,VALID,100,VALID,0.0339617,VALID,18.6465,VALID,93,VALID,0.92702,
2005-12-09, 02:08:00,VALID,916.003,VALID,0,VALID,100,VALID,0.0339617,VALID,18.64,VALID,77,VALID,0.72093,
2005-12-09, 02:09:00,VALID,916.006,VALID,0,VALID,100,VALID,0.0169808,VALID,18.6366,VALID,67,VALID,0.799924,
2005-12-09, 02:10:00,VALID,916.005,VALID,0,VALID,100,VALID,0.0169808,VALID,18.6437,VALID,59,VALID,0.871433,
2005-12-09, 02:11:00,VALID,915.999,VALID,0,VALID,100,VALID,0,VALID,18.6348,VALID,65,VALID,0.788368,
2005-12-09, 02:12:00,VALID,915.989,VALID,0,VALID,100,VALID,0,VALID,18.6246,VALID,57,VALID,0.75651,
2005-12-09, 02:13:00,VALID,915.979,VALID,0,VALID,100,VALID,-0.0169808,VALID,18.6246,VALID,63,VALID,0.805208,
2005-12-09, 02:14:00,VALID,915.951,VALID,0.2,VALID,100,VALID,0,VALID,18.6084,VALID,65,VALID,0.616319,
2005-12-09, 02:15:00,VALID,915.917,VALID,0,VALID,100,VALID,0.0169808,VALID,18.605,VALID,63,VALID,0.707031,
2005-12-09, 02:16:00,VALID,915.889,VALID,0,VALID,100,VALID,0,VALID,18.6149,VALID,69,VALID,0.424055,
2005-12-09, 02:17:00,VALID,915.848,VALID,0,VALID,100,VALID,0,VALID,18.6114,VALID,72,VALID,0.394336,
2005-12-09, 02:18:00,VALID,915.815,VALID,0,VALID,100,VALID,0,VALID,18.6149,VALID,83,VALID,0.60119,
2005-12-09, 02:19:00,VALID,915.775,VALID,0,VALID,100,VALID,0.0169808,VALID,18.6248,VALID,94,VALID,0.525298,
2005-12-09, 02:20:00,VALID,915.735,VALID,0,VALID,100,VALID,-0.0169808,VALID,18.6407,VALID,93,VALID,0.760789,
2005-12-09, 02:21:00,VALID,915.71,VALID,0,VALID,100,VALID,0.0169808,VALID,18.6604,VALID,99,VALID,0.959695,
2005-12-09, 02:22:00,VALID,915.687,VALID,0,VALID,100,VALID,0,VALID,18.6932,VALID,109,VALID,0.813058,
2005-12-09, 02:23:00,VALID,915.653,VALID,0,VALID,100,VALID,0,VALID,18.7024,VALID,117,VALID,0.81686,
2005-12-09, 02:24:00,VALID,915.633,VALID,0,VALID,100,VALID,-0.0169808,VALID,18.7054,VALID,141,VALID,0.626776,
2005-12-09, 02:25:00,VALID,915.619,VALID,0,VALID,100,VALID,-0.0339617,VALID,18.722,VALID,107,VALID,0.493229,
2005-12-09, 02:26:00,VALID,915.606,VALID,0,VALID,100,VALID,-0.0339617,VALID,18.7151,VALID,135,VALID,0.365371,
2005-12-09, 02:27:00,VALID,915.588,VALID,0,VALID,100,VALID,0,VALID,18.7153,VALID,103,VALID,0.653274,
2005-12-09, 02:28:00,VALID,915.587,VALID,0,VALID,100,VALID,0,VALID,18.7285,VALID,71,VALID,0.317425,
2005-12-09, 02:29:00,VALID,915.572,VALID,0,VALID,100,VALID,-0.0169808,VALID,18.7252,VALID,79,VALID,0.638393,
2005-12-09, 02:30:00,VALID,915.561,VALID,0,VALID,100,VALID,-0.0169808,VALID,18.7058,VALID,49,VALID,0.651867,
2005-12-09, 02:31:00,VALID,915.551,VALID,0,VALID,100,VALID,0,VALID,18.6733,VALID,63,VALID,0.679506,
2005-12-09, 02:32:00,VALID,915.537,VALID,0,VALID,100,VALID,-0.0169808,VALID,18.6541,VALID,57,VALID,0.781851,
2005-12-09, 02:33:00,VALID,915.521,VALID,0,VALID,100,VALID,0,VALID,18.6313,VALID,43,VALID,0.760538,
2005-12-09, 02:34:00,VALID,915.516,VALID,0,VALID,100,VALID,0.0679233,VALID,18.6105,VALID,46,VALID,0.803013,
2005-12-09, 02:35:00,VALID,915.495,VALID,0,VALID,100,VALID,0.0849042,VALID,18.6075,VALID,49,VALID,0.683594,
2005-12-09, 02:36:00,VALID,915.478,VALID,0,VALID,100,VALID,0.101885,VALID,18.5943,VALID,56,VALID,0.648785,
2005-12-09, 02:37:00,VALID,915.466,VALID,0,VALID,100,VALID,0.101885,VALID,18.5879,VALID,58,VALID,0.484189,
2005-12-09, 02:38:00,VALID,915.443,VALID,0,VALID,100,VALID,0.101885,VALID,18.5713,VALID,69,VALID,0.5867,
2005-12-09, 02:39:00,VALID,915.439,VALID,0,VALID,100,VALID,0.0679233,VALID,18.5581,VALID,91,VALID,0.617535,
2005-12-09, 02:40:00,VALID,915.421,VALID,0,VALID,100,VALID,0.101885,VALID,18.572,VALID,92,VALID,0.371289,
2005-12-09, 02:41:00,VALID,915.42,VALID,0,VALID,100,VALID,0.0849042,VALID,18.5747,VALID,91,VALID,0.367708,
2005-12-09, 02:42:00,VALID,915.41,VALID,0,VALID,100,VALID,0.101885,VALID,18.5648,VALID,114,VALID,0.247456,
2005-12-09, 02:43:00,VALID,915.411,VALID,0,VALID,100,VALID,0.101885,VALID,18.5717,VALID,135,VALID,0.351753,
2005-12-09, 02:44:00,VALID,915.409,VALID,0,VALID,100,VALID,0.101885,VALID,18.5948,VALID,127,VALID,0.640104,
2005-12-09, 02:45:00,VALID,915.417,VALID,0,VALID,100,VALID,0.101885,VALID,18.5782,VALID,122,VALID,0.566134,
2005-12-09, 02:46:00,VALID,915.411,VALID,0,VALID,100,VALID,0.0849042,VALID,18.5874,VALID,122,VALID,0.784375,
2005-12-09, 02:47:00,VALID,915.43,VALID,0,VALID,100,VALID,0.101885,VALID,18.5874,VALID,145,VALID,0.638867,
2005-12-09, 02:48:00,VALID,915.423,VALID,0,VALID,100,VALID,0.0679233,VALID,18.598,VALID,136,VALID,0.508358,
2005-12-09, 02:49:00,VALID,915.412,VALID,0,VALID,100,VALID,0,VALID,18.593,VALID,100,VALID,0.55202,
2005-12-09, 02:50:00,VALID,915.408,VALID,0,VALID,100,VALID,0,VALID,18.5794,VALID,128,VALID,0.751002,
2005-12-09, 02:51:00,VALID,915.395,VALID,0,VALID,100,VALID,0,VALID,18.5761,VALID,135,VALID,0.592988,
2005-12-09, 02:52:00,VALID,915.377,VALID,0,VALID,100,VALID,0,VALID,18.5828,VALID,127,VALID,0.486506,
2005-12-09, 02:53:00,VALID,915.367,VALID,0,VALID,100,VALID,-0.0169808,VALID,18.5764,VALID,126,VALID,0.611151,
2005-12-09, 02:54:00,VALID,915.355,VALID,0,VALID,100,VALID,0,VALID,18.5729,VALID,124,VALID,0.701823,
2005-12-09, 02:55:00,VALID,915.336,VALID,0,VALID,100,VALID,0,VALID,18.5865,VALID,137,VALID,0.716992,
2005-12-09, 02:56:00,VALID,915.323,VALID,0,VALID,100,VALID,0,VALID,18.5766,VALID,141,VALID,0.886265,
2005-12-09, 02:57:00,VALID,915.305,VALID,0,VALID,100,VALID,-0.0169808,VALID,18.5731,VALID,142,VALID,0.992006,
2005-12-09, 02:58:00,VALID,915.291,VALID,0,VALID,100,VALID,0,VALID,18.5895,VALID,135,VALID,1.1449,
2005-12-09, 02:59:00,VALID,915.273,VALID,0,VALID,100,VALID,0,VALID,18.5957,VALID,132,VALID,1.07203,
2005-12-09, 03:00:00,VALID,915.283,VALID,0,VALID,100,VALID,-0.0339617,VALID,18.6057,VALID,136,VALID,1.16424,
2005-12-09, 03:01:00,VALID,915.285,VALID,0,VALID,100,VALID,0.0169808,VALID,18.6117,VALID,138,VALID,0.873047,
2005-12-09, 03:02:00,VALID,915.274,VALID,0,VALID,100,VALID,0,VALID,18.6052,VALID,119,VALID,0.820131,
2005-12-09, 03:03:00,VALID,915.275,VALID,0,VALID,100,VALID,0.0169808,VALID,18.6087,VALID,96,VALID,0.750178,
2005-12-09, 03:04:00,VALID,915.269,VALID,0,VALID,100,VALID,0,VALID,18.6061,VALID,96,VALID,1.06481,
2005-12-09, 03:05:00,VALID,915.261,VALID,0,VALID,100,VALID,-0.0339617,VALID,18.593,VALID,98,VALID,1.38951,
2005-12-09, 03:06:00,VALID,915.263,VALID,0,VALID,100,VALID,0,VALID,18.5992,VALID,102,VALID,1.12538,
2005-12-09, 03:07:00,VALID,915.271,VALID,0,VALID,100,VALID,0,VALID,18.5928,VALID,103,VALID,1.07013,
2005-12-09, 03:08:00,VALID,915.282,VALID,0,VALID,100,VALID,0.0169808,VALID,18.5798,VALID,98,VALID,1.17168,
2005-12-09, 03:09:00,VALID,915.282,VALID,0,VALID,100,VALID,-0.0169808,VALID,18.5731,VALID,101,VALID,1.04052,
2005-12-09, 03:10:00,VALID,915.29,VALID,0,VALID,100,VALID,0.0169808,VALID,18.5664,VALID,98,VALID,1.07304,
2005-12-09, 03:11:00,VALID,915.285,VALID,0,VALID,100,VALID,0.0169808,VALID,18.5731,VALID,98,VALID,0.916061,
2005-12-09, 03:12:00,VALID,915.291,VALID,0,VALID,100,VALID,0.0169808,VALID,18.5729,VALID,93,VALID,0.725419,
2005-12-09, 03:13:00,VALID,915.307,VALID,0,VALID,100,VALID,0,VALID,18.5729,VALID,100,VALID,0.89826,
2005-12-09, 03:14:00,VALID,915.297,VALID,0,VALID,100,VALID,0,VALID,18.5863,VALID,96,VALID,0.799162,
2005-12-09, 03:15:00,VALID,915.315,VALID,0,VALID,100,VALID,0.0339617,VALID,18.5727,VALID,97,VALID,0.818266,
2005-12-09, 03:16:00,VALID,915.33,VALID,0,VALID,100,VALID,0,VALID,18.5798,VALID,99,VALID,0.702237,
2005-12-09, 03:17:00,VALID,915.328,VALID,0,VALID,100,VALID,0,VALID,18.5697,VALID,108,VALID,0.501715,
2005-12-09, 03:18:00,VALID,915.325,VALID,0,VALID,100,VALID,0,VALID,18.5664,VALID,108,VALID,0.553163,
2005-12-09, 03:19:00,VALID,915.304,VALID,0,VALID,100,VALID,0.0169808,VALID,18.5667,VALID,101,VALID,0.92223,
2005-12-09, 03:20:00,VALID,915.312,VALID,0,VALID,100,VALID,-0.0169808,VALID,18.5669,VALID,94,VALID,0.880022,
2005-12-09, 03:21:00,VALID,915.295,VALID,0,VALID,100,VALID,0.0169808,VALID,18.5637,VALID,91,VALID,0.822027,
2005-12-09, 03:22:00,VALID,915.282,VALID,0,VALID,100,VALID,0.0169808,VALID,18.5667,VALID,100,VALID,0.921701,
2005-12-09, 03:23:00,VALID,915.255,VALID,0,VALID,100,VALID,0,VALID,18.5535,VALID,104,VALID,1.09727,
2005-12-09, 03:24:00,VALID,915.234,VALID,0,VALID,100,VALID,-0.0169808,VALID,18.5632,VALID,102,VALID,0.939918,
2005-12-09, 03:25:00,VALID,915.212,VALID,0,VALID,100,VALID,0,VALID,18.5535,VALID,103,VALID,0.507813,
2005-12-09, 03:26:00,VALID,915.176,VALID,0,VALID,100,VALID,0.0169808,VALID,18.5572,VALID,98,VALID,0.63956,
2005-12-09, 03:27:00,VALID,915.168,VALID,0,VALID,100,VALID,0.0169808,VALID,18.5406,VALID,104,VALID,0.470833,
2005-12-09, 03:28:00,VALID,915.148,VALID,0,VALID,100,VALID,0.0169808,VALID,18.5277,VALID,118,VALID,0.380022,
2005-12-09, 03:29:00,VALID,915.138,VALID,0,VALID,100,VALID,0.0169808,VALID,18.5182,VALID,118,VALID,0.0980469,
2005-12-09, 03:30:00,VALID,915.127,VALID,0,VALID,100,VALID,0,VALID,18.5117,VALID,126,VALID,0.271701,
2005-12-09, 03:31:00,VALID,915.115,VALID,0,VALID,100,VALID,0,VALID,18.4891,VALID,116,VALID,0.284702,
2005-12-09, 03:32:00,VALID,915.117,VALID,0,VALID,100,VALID,0,VALID,18.4827,VALID,90,VALID,0.750178,
2005-12-09, 03:33:00,VALID,915.116,VALID,0,VALID,100,VALID,-0.0339617,VALID,18.4665,VALID,73,VALID,0.579985,
2005-12-09, 03:34:00,VALID,915.12,VALID,0,VALID,100,VALID,-0.0849042,VALID,18.4515,VALID,62,VALID,0.835405,
2005-12-09, 03:35:00,VALID,915.147,VALID,0,VALID,100,VALID,-0.0169808,VALID,18.4351,VALID,45,VALID,0.877131,
2005-12-09, 03:36:00,VALID,915.15,VALID,0,VALID,100,VALID,0.0169808,VALID,18.4245,VALID,36,VALID,1.11942,
2005-12-09, 03:37:00,VALID,915.165,VALID,0,VALID,100,VALID,0,VALID,18.4183,VALID,44,VALID,1.25019,
2005-12-09, 03:38:00,VALID,915.199,VALID,0,VALID,100,VALID,0.0169808,VALID,18.389,VALID,43,VALID,1.39479,
2005-12-09, 03:39:00,VALID,915.233,VALID,0,VALID,100,VALID,0.0169808,VALID,18.3631,VALID,44,VALID,1.17708,
2005-12-09, 03:40:00,VALID,915.262,VALID,0,VALID,100,VALID,0.0339617,VALID,18.3504,VALID,47,VALID,1.15997,
2005-12-09, 03:41:00,VALID,915.292,VALID,0,VALID,100,VALID,0,VALID,18.3504,VALID,58,VALID,1.20573,
2005-12-09, 03:42:00,VALID,915.313,VALID,0,VALID,100,VALID,0,VALID,18.341,VALID,72,VALID,1.12686,
2005-12-09, 03:43:00,VALID,915.346,VALID,0,VALID,100,VALID,0,VALID,18.334,VALID,76,VALID,0.857813,
2005-12-09, 03:44:00,VALID,915.351,VALID,0,VALID,100,VALID,0.0169808,VALID,18.334,VALID,71,VALID,0.75728,
2005-12-09, 03:45:00,VALID,915.357,VALID,0,VALID,100,VALID,0,VALID,18.3308,VALID,76,VALID,0.733259,